Theta_e
323 324 333 335 337 328 332 331 337 340 342 343 343 345 345 343 342 340 340 339 338 336 331 331 331 327 324 325 324 321 319 317 315 314 313 312 312 311 309 308 307 306 305 304
324 325 326 328 333 326 326 329 336 342 342 342 343 345 345 344 343 341 341 340 339 338 335 333 330 325 325 323 321 319 317 316 314 312 311 311 309 309 308 307 307 306 306 304
324 325 324 323 323 323 325 328 335 335 343 342 344 348 348 344 343 341 341 340 338 338 337 336 331 328 326 323 320 318 316 314 312 311 310 309 309 309 308 307 306 306 304 303
323 323 323 323 324 324 327 327 333 341 343 343 345 346 352 348 346 343 342 341 339 339 338 336 332 328 325 321 319 317 315 313 311 310 309 309 309 308 308 307 305 305 304 303
322 322 323 324 324 325 327 328 335 341 341 345 348 346 348 347 349 346 343 342 340 340 337 335 331 326 323 320 318 316 315 312 311 310 309 309 308 307 307 305 305 304 304 303
322 323 323 326 327 327 334 338 340 341 343 345 343 347 340 350 348 345 343 343 340 337 334 330 326 323 321 319 318 315 312 311 310 309 309 308 307 306 306 306 305 304 304 303
322 323 324 329 335 336 338 342 340 341 340 338 346 345 340 348 343 343 344 342 337 334 332 328 325 322 321 319 317 313 311 311 310 309 309 308 307 307 306 306 306 306 305 305
323 322 325 331 334 336 339 337 333 337 335 337 347 343 349 347 345 342 342 338 335 333 330 327 323 321 320 318 315 311 310 310 310 309 309 309 308 308 307 307 307 307 306 306
323 327 326 326 329 334 338 335 334 336 339 338 337 344 348 343 343 343 342 336 334 332 329 324 321 320 319 316 312 310 310 310 310 309 309 309 308 308 308 308 308 307 307 306
328 333 328 326 326 330 335 334 336 336 338 339 337 341 339 349 345 344 340 337 334 330 327 323 321 319 317 314 311 310 310 310 310 310 309 309 308 307 308 308 308 308 308 308
326 331 331 328 330 330 333 333 336 340 340 338 338 340 342 346 345 343 339 337 333 330 325 323 320 318 315 312 310 310 310 310 310 310 309 309 308 308 308 309 309 309 308 308
327 333 334 330 330 330 333 332 336 335 340 339 340 339 335 343 343 341 339 335 332 328 324 322 319 318 315 312 310 310 310 310 310 310 310 309 309 308 309 309 308 308 308 308
331 332 336 334 331 331 333 334 336 342 341 338 340 339 334 338 342 340 337 333 331 327 323 321 319 317 315 312 309 310 310 310 310 310 310 310 309 309 309 309 308 308 307 307
332 338 336 333 332 332 335 334 335 337 339 338 337 334 338 342 341 339 336 332 329 326 323 321 320 317 314 312 310 310 310 310 310 310 310 310 310 309 309 309 308 308 308 307
336 339 336 334 332 331 334 334 333 334 334 335 333 330 334 340 340 337 334 330 329 326 323 321 320 317 314 313 310 309 310 310 310 310 310 310 309 309 309 308 308 308 307 307
336 339 337 335 331 332 333 333 331 333 333 330 329 329 332 338 337 334 332 330 328 326 324 321 319 316 314 313 311 309 310 310 310 310 310 310 310 309 309 308 308 307 307 307
338 338 339 337 332 333 335 334 333 334 333 331 331 333 334 337 336 334 332 330 328 326 324 321 319 316 314 313 311 310 310 310 310 310 310 310 310 309 309 309 308 308 308 307
339 339 338 337 334 337 335 333 332 332 333 333 332 331 333 334 334 332 330 329 327 326 324 320 318 315 313 313 311 310 309 309 310 310 310 310 309 309 309 309 309 308 307 308
337 336 337 336 334 333 330 331 332 333 333 333 333 331 331 331 330 330 327 326 326 325 322 319 317 314 314 312 311 309 310 309 309 310 310 309 310 310 309 308 308 308 307 308
334 339 338 336 333 331 334 332 331 332 335 334 333 332 331 330 333 331 327 325 324 322 320 318 315 314 313 312 310 310 310 309 310 309 310 309 310 310 309 308 308 306 307 308
335 335 334 334 331 331 333 330 330 335 340 333 332 332 330 331 332 330 326 324 323 321 319 315 314 314 313 312 311 310 310 310 310 309 309 309 310 311 310 310 308 307 308 308
335 333 334 336 335 335 332 330 332 338 332 332 331 331 330 330 327 326 325 324 322 319 315 315 314 314 313 312 312 311 311 309 309 309 309 310 310 310 310 309 309 310 309 309
338 339 337 337 339 339 332 337 332 331 332 330 331 329 329 327 326 325 325 323 320 316 315 315 314 314 313 313 312 312 311 310 309 309 309 310 309 309 310 309 310 310 309 309
338 336 337 339 339 336 334 331 330 328 329 328 328 328 327 327 325 324 323 322 318 316 315 315 314 314 314 313 312 312 311 310 309 309 309 309 309 309 309 309 309 309 309 308
336 338 339 338 337 333 331 331 329 326 325 326 326 326 326 325 324 323 322 320 317 316 316 315 314 315 314 313 313 313 311 310 309 309 308 309 308 308 308 308 308 308 308 307
337 336 337 336 338 335 335 330 326 326 325 325 325 325 324 323 323 321 320 318 317 316 316 316 316 314 314 314 314 313 311 310 309 309 308 307 307 307 307 307 308 307 306 305
Wind_Speed
12 11 14 17 16 6 5 10 10 8 4 12 10 9 13 15 14 13 13 11 10 9 10 9 7 8 9 10 11 13 14 16 16 16 17 15 15 13 15 15 16 17 16 17
9 15 16 13 14 8 12 11 7 3 4 10 7 10 11 16 17 15 13 13 11 10 10 10 8 8 9 9 10 12 13 14 16 14 14 12 13 13 14 16 18 18 18 17
14 13 9 10 12 13 13 13 11 7 9 6 6 10 14 16 15 15 12 11 11 11 12 10 9 8 7 8 10 11 12 13 15 15 14 13 12 12 17 19 21 20 22 19
14 6 11 13 15 17 17 19 9 11 14 5 15 3 16 17 16 14 15 14 12 12 11 11 11 8 6 7 9 10 11 14 14 15 13 14 14 16 16 18 18 19 20 18
11 13 14 12 16 17 12 8 16 17 12 6 14 6 9 14 15 17 17 15 12 11 11 11 10 9 8 7 8 9 11 12 12 13 14 14 16 15 16 16 18 19 18 18
13 1 12 12 3 9 10 13 13 11 6 10 12 12 6 11 17 16 16 12 10 12 12 13 12 9 7 6 6 8 10 11 12 13 14 15 14 14 15 16 17 18 19 18
15 15 6 10 14 17 11 16 8 9 9 7 6 7 9 8 5 14 16 14 14 13 13 12 11 8 5 6 7 8 9 11 12 12 13 14 12 12 13 15 16 17 18 18
13 16 17 16 13 10 18 14 10 6 8 3 5 6 4 5 4 5 14 15 15 14 12 11 10 7 6 6 7 8 9 10 11 11 12 13 13 13 13 14 14 14 16 17
13 9 17 10 10 11 13 8 3 4 3 10 3 5 6 6 8 12 16 16 15 13 12 10 10 7 6 6 7 8 9 8 10 10 11 12 13 12 12 14 14 15 15 16
3 6 10 7 9 3 9 12 6 8 8 9 3 6 6 13 14 15 17 16 15 13 13 10 9 7 6 6 6 7 7 7 8 10 11 11 10 11 13 14 14 15 16 16
9 4 8 9 10 12 6 8 5 5 4 9 10 2 6 5 15 17 17 16 15 14 12 10 9 7 6 5 6 6 5 6 6 8 9 9 10 10 12 14 16 16 16 18
14 3 7 8 1 4 4 9 11 9 5 4 6 6 3 2 12 14 15 15 14 13 11 10 8 8 6 4 4 5 4 5 5 7 7 7 8 10 11 14 16 17 18 18
11 6 7 7 5 2 7 4 4 2 4 8 9 3 2 7 12 13 15 15 14 13 11 9 8 7 5 4 4 4 3 4 5 6 7 7 9 9 12 12 14 15 16 18
11 4 9 8 6 4 5 8 8 8 7 3 9 4 6 10 14 15 15 15 15 13 11 9 7 7 5 4 4 3 3 3 4 5 6 8 10 9 10 11 14 15 15 16
7 7 5 4 3 2 2 10 9 8 1 5 7 6 4 11 15 15 15 15 14 13 12 9 7 8 6 4 4 4 3 2 2 4 6 7 8 8 8 11 12 14 16 16
4 4 7 3 4 7 3 6 6 5 3 1 2 3 1 11 12 15 16 16 15 14 12 10 9 9 7 5 4 5 4 2 1 3 5 5 7 7 7 9 12 14 12 13
6 7 5 3 1 7 6 11 11 8 5 3 6 5 12 14 15 17 17 16 15 13 12 10 10 9 6 4 4 6 5 3 1 1 3 4 5 6 6 8 9 12 13 14
9 6 2 4 6 8 4 2 4 7 5 7 3 8 11 11 12 13 15 15 14 13 11 11 11 9 7 5 5 6 5 4 2 1 2 3 3 4 5 6 8 10 11 13
4 5 5 4 6 2 8 7 9 9 9 10 7 9 10 11 12 11 13 14 13 12 12 12 11 10 8 5 5 6 6 6 4 2 0 1 2 3 6 7 7 8 10 13
4 2 2 4 12 6 4 6 5 3 10 13 11 13 15 15 10 9 16 14 14 14 14 14 13 12 9 5 4 5 6 6 5 2 2 2 1 3 5 6 6 7 8 10
6 3 8 7 6 5 5 8 7 9 4 10 12 13 16 14 5 16 18 16 17 16 15 15 14 12 9 6 3 2 3 5 5 4 4 3 2 4 5 6 7 8 9 10
7 6 5 4 6 11 10 11 7 4 3 8 10 13 14 8 11 16 17 16 18 18 17 16 14 12 9 6 3 0 1 3 5 5 5 5 5 7 6 8 9 8 9 10
5 2 0 3 4 4 11 5 5 2 4 7 10 12 14 13 15 16 15 16 18 19 17 14 14 13 9 7 4 2 3 2 5 5 6 6 6 7 6 8 9 8 7 9
5 4 2 3 5 4 8 6 3 3 3 8 11 14 14 15 16 16 15 15 18 18 15 12 12 11 9 6 6 5 4 2 4 5 6 6 7 7 6 8 9 8 10 8
3 9 6 2 4 3 6 9 6 7 9 11 12 14 13 16 15 15 15 17 18 17 15 12 10 8 9 7 6 4 3 2 4 4 5 6 6 5 5 7 8 9 7 8
6 6 6 1 8 1 5 11 10 12 12 13 15 14 13 16 15 17 15 18 18 16 14 11 9 8 7 7 5 3 2 2 3 2 2 4 5 6 6 8 8 8 6 8
Wind_Direction
189 190 197 190 210 356 261 216 215 216 108 201 220 204 191 184 199 195 188 186 177 179 149 138 119 100 84 70 55 45 32 22 15 7 6 5 6 3 2 6 4 359 358 359
180 219 204 201 211 244 233 216 179 146 209 214 206 221 203 196 207 201 198 192 187 173 165 149 132 110 91 76 61 47 36 25 19 14 16 12 8 12 7 3 2 0 357 358
214 212 142 190 194 207 220 221 186 236 168 222 209 221 214 211 209 213 213 214 198 187 178 165 149 129 105 78 58 47 36 27 23 21 17 16 15 12 9 7 5 3 3 360
233 163 199 208 214 214 236 225 194 167 184 252 202 298 195 196 202 214 215 213 211 189 168 165 154 134 112 86 63 46 36 28 27 24 25 26 18 15 14 10 5 5 8 6
207 203 203 213 218 209 253 189 181 184 214 177 193 262 106 187 205 210 212 213 210 158 177 162 149 132 114 87 62 42 33 31 32 32 32 25 22 15 15 11 13 11 14 13
260 178 215 222 175 205 148 143 157 188 193 237 174 222 206 175 215 199 197 182 163 175 156 138 130 132 109 81 58 42 30 38 33 35 32 28 22 13 8 7 9 10 15 16
214 224 200 164 128 155 189 168 181 218 210 274 124 219 282 155 171 191 184 163 170 164 151 145 151 128 109 73 47 37 39 41 34 30 28 25 16 10 6 5 7 6 8 11
214 201 184 194 200 192 202 213 263 259 275 335 145 244 104 110 130 188 162 158 166 167 155 147 137 127 99 76 51 44 48 42 33 29 25 12 7 5 2 8 358 7 8 4
199 222 178 202 203 214 172 228 14 276 240 270 253 145 171 167 175 170 148 162 163 158 148 143 139 127 98 81 59 55 55 49 38 29 18 16 10 8 11 9 4 7 3 357
54 189 195 155 179 205 246 145 200 211 263 266 187 283 295 178 174 167 164 167 161 158 149 149 145 124 103 84 74 67 60 53 38 24 21 15 14 21 16 14 13 8 7 2
228 272 146 171 207 191 175 199 233 303 311 305 303 7 28 161 179 177 169 167 161 164 155 158 145 128 109 86 71 79 62 47 32 22 15 19 21 23 20 19 16 13 6 6
209 268 192 194 37 291 296 271 200 254 211 253 298 302 53 99 160 170 167 159 160 162 155 157 150 139 131 91 88 95 68 48 22 14 15 21 23 25 24 20 17 15 13 15
164 212 174 170 164 161 223 182 227 237 270 261 291 29 69 159 151 168 160 157 158 158 162 160 156 144 139 120 122 115 83 41 18 21 27 28 26 23 20 20 23 19 16 15
198 187 241 208 186 186 181 196 194 228 258 258 260 329 151 166 166 167 161 161 163 168 166 168 164 156 157 141 147 143 108 51 41 37 30 30 27 20 20 24 21 16 13 11
206 196 163 86 113 114 224 179 187 224 254 285 12 304 134 182 178 171 164 164 166 175 177 173 176 166 165 169 165 168 143 106 66 35 30 30 26 35 33 26 21 16 18 16
190 142 144 96 186 145 174 185 193 166 171 195 268 238 84 152 162 170 175 174 177 181 183 179 175 171 174 175 189 182 174 142 88 28 22 29 31 46 41 28 24 20 16 14
170 147 179 133 34 124 208 200 193 186 193 282 239 77 149 165 177 181 178 181 182 182 183 179 174 173 172 180 186 192 185 180 176 15 39 51 48 51 40 26 22 18 11 5
151 136 105 108 134 219 71 208 224 230 199 200 146 152 171 174 175 179 178 179 181 179 178 175 171 166 166 173 186 183 189 202 217 248 59 63 48 39 16 6 8 358 357 2
217 134 97 165 222 347 239 207 198 206 219 209 190 160 154 146 151 177 175 179 176 174 172 172 164 159 158 174 192 196 200 209 223 234 331 41 24 19 6 354 348 343 342 349
121 108 196 162 238 237 5 131 179 187 246 172 171 166 156 154 188 182 177 171 162 166 164 164 158 153 152 145 179 202 209 210 226 246 275 286 303 333 358 351 351 334 327 345
175 189 201 149 198 222 143 147 165 220 87 153 167 167 167 187 36 122 155 159 158 160 158 157 157 160 153 141 138 194 219 220 224 251 269 267 288 314 331 326 318 310 319 329
202 207 192 201 222 238 147 147 215 63 95 147 163 165 171 131 127 138 151 152 154 153 153 160 162 158 154 161 176 74 301 235 221 254 267 272 288 308 313 320 320 309 309 316
209 319 322 282 34 114 174 53 94 76 129 149 159 162 155 149 141 144 151 152 153 155 161 162 162 156 163 174 209 264 338 291 232 256 275 280 292 303 312 319 321 325 312 317
162 142 264 207 159 170 179 156 149 139 124 144 153 157 154 147 144 146 151 151 153 160 160 158 165 166 168 188 209 241 289 291 244 266 286 287 289 312 311 315 338 331 331 345
44 154 182 200 166 176 199 196 147 135 134 137 144 148 151 146 146 150 154 153 156 159 159 157 172 166 155 194 212 237 284 284 221 268 295 290 289 311 330 328 328 335 344 341
181 167 206 132 137 37 107 159 148 146 141 142 144 148 149 149 147 152 152 155 157 163 155 160 161 161 174 190 209 210 247 257 226 258 295 25 342 336 342 333 344 319 334 341